SHT4J EGLL-EGAC

Flight info

Callsign SHT4J
Flight time 1h 0m
Altitude 38000
Route ULTIB1J ULTIB T420 TNT UL28 RODOL UM65 TENSO L603 BELOX DCT REMSI DCT NINEB M148 MAGEE DCT
Aircraft A319/M-SDE3FGIJ1KRWXY/LB1

Departure

Time 2026-05-08 16:31
Airport London Heathrow Airport (EGLL)

Arrival

Time 2026-05-08 17:31
Airport George Best Belfast City Airport (EGAC)
Time Latitude Longitude Altitude Speed Heading
2026-05-08 15:23 51.47233 -0.48588 91 ft 0 kts 270°
2026-05-08 16:20 51.47233 -0.48569 90 ft 4 kts 270°
2026-05-08 16:20 51.47233 -0.48526 89 ft 3 kts 270°
2026-05-08 16:20 51.47234 -0.48493 90 ft 4 kts 239°
2026-05-08 16:20 51.47252 -0.48473 91 ft 4 kts 181°
2026-05-08 16:21 51.47270 -0.48473 86 ft 0 kts 180°
2026-05-08 16:24 51.47254 -0.48473 88 ft 3 kts 179°
2026-05-08 16:24 51.47223 -0.48473 86 ft 6 kts 179°
2026-05-08 16:25 51.47177 -0.48472 89 ft 8 kts 179°
2026-05-08 16:25 51.47116 -0.48471 86 ft 10 kts 179°
2026-05-08 16:25 51.47035 -0.48469 86 ft 13 kts 178°
2026-05-08 16:25 51.46938 -0.48467 86 ft 15 kts 177°
2026-05-08 16:26 51.46824 -0.48468 86 ft 18 kts 180°
2026-05-08 16:26 51.46775 -0.48471 86 ft 7 kts 189°
2026-05-08 16:26 51.46741 -0.48544 88 ft 10 kts 265°
2026-05-08 16:26 51.46741 -0.48666 86 ft 12 kts 269°
2026-05-08 16:27 51.46683 -0.48747 86 ft 13 kts 179°
2026-05-08 16:27 51.46602 -0.48760 86 ft 11 kts 202°
2026-05-08 16:27 51.46595 -0.48765 88 ft 0 kts 204°
2026-05-08 16:29 51.46593 -0.48766 88 ft 1 kts 204°
2026-05-08 16:29 51.46579 -0.48777 88 ft 3 kts 204°
2026-05-08 16:29 51.46548 -0.48790 87 ft 6 kts 185°
2026-05-08 16:29 51.46504 -0.48773 88 ft 8 kts 153°
2026-05-08 16:30 51.46474 -0.48690 86 ft 10 kts 95°
2026-05-08 16:30 51.46479 -0.48610 88 ft 12 kts 88°
2026-05-08 16:30 51.46480 -0.48325 88 ft 52 kts 89°
2026-05-08 16:30 51.46478 -0.47413 86 ft 110 kts 88°
2026-05-08 16:31 51.46484 -0.45914 171 ft 152 kts 89°
2026-05-08 16:31 51.46513 -0.44184 795 ft 158 kts 88°
2026-05-08 16:31 51.46550 -0.42380 1467 ft 166 kts 89°
2026-05-08 16:31 51.46920 -0.40579 2090 ft 178 kts 64°
2026-05-08 16:32 51.47734 -0.38884 2496 ft 205 kts 53°
2026-05-08 16:32 51.48700 -0.37021 3030 ft 229 kts 52°
2026-05-08 16:32 51.49775 -0.34948 3656 ft 254 kts 52°
2026-05-08 16:32 51.50934 -0.32719 4588 ft 264 kts 52°
2026-05-08 16:33 51.52098 -0.30375 5507 ft 273 kts 59°
2026-05-08 16:33 51.52824 -0.27561 6359 ft 275 kts 73°
2026-05-08 16:33 51.53724 -0.24827 7339 ft 283 kts 51°
2026-05-08 16:33 51.55307 -0.22936 8309 ft 289 kts 22°
2026-05-08 16:34 51.57286 -0.22415 9265 ft 294 kts 353°
2026-05-08 16:34 51.59303 -0.22995 10298 ft 297 kts 347°
2026-05-08 16:34 51.61363 -0.23857 10712 ft 319 kts 338°
2026-05-08 16:34 51.63428 -0.25421 11195 ft 335 kts 327°
2026-05-08 16:35 51.65413 -0.27355 11961 ft 341 kts 327°
2026-05-08 16:35 51.67463 -0.29332 12809 ft 345 kts 327°
2026-05-08 16:35 51.69537 -0.31325 13653 ft 349 kts 327°
2026-05-08 16:35 51.71635 -0.33341 14412 ft 353 kts 327°
2026-05-08 16:36 51.73755 -0.35380 14917 ft 357 kts 327°
2026-05-08 16:36 51.75894 -0.37441 15178 ft 361 kts 327°
2026-05-08 16:36 51.78051 -0.39525 15861 ft 363 kts 327°
2026-05-08 16:36 51.80232 -0.41635 16563 ft 367 kts 327°
2026-05-08 16:37 51.82435 -0.43770 17267 ft 371 kts 327°
2026-05-08 16:37 51.84662 -0.45925 17980 ft 375 kts 327°
2026-05-08 16:37 51.86918 -0.48111 18647 ft 380 kts 327°
2026-05-08 16:37 51.89194 -0.50324 19299 ft 383 kts 327°
2026-05-08 16:38 51.91479 -0.52554 19970 ft 385 kts 327°
2026-05-08 16:38 51.93777 -0.54798 20645 ft 387 kts 327°
2026-05-08 16:38 51.96091 -0.57055 21312 ft 389 kts 327°
2026-05-08 16:38 51.98416 -0.59321 21957 ft 391 kts 327°
2026-05-08 16:39 52.00729 -0.61578 22585 ft 394 kts 327°
2026-05-08 16:39 52.03080 -0.63879 23207 ft 396 kts 327°
2026-05-08 16:39 52.05450 -0.66209 23801 ft 398 kts 327°
2026-05-08 16:39 52.07826 -0.68547 24303 ft 400 kts 327°
2026-05-08 16:40 52.10204 -0.70883 24821 ft 402 kts 327°
2026-05-08 16:40 52.12614 -0.73252 25325 ft 404 kts 327°
2026-05-08 16:40 52.15030 -0.75633 25819 ft 406 kts 326°
2026-05-08 16:40 52.17446 -0.78020 26310 ft 407 kts 326°
2026-05-08 16:41 52.19871 -0.80423 26798 ft 409 kts 326°
2026-05-08 16:41 52.22308 -0.82837 27284 ft 411 kts 326°
2026-05-08 16:41 52.24762 -0.85269 27770 ft 413 kts 326°
2026-05-08 16:42 52.29703 -0.90167 28738 ft 417 kts 326°
2026-05-08 16:42 52.32189 -0.92634 29215 ft 419 kts 326°
2026-05-08 16:42 52.34688 -0.95121 29669 ft 421 kts 326°
2026-05-08 16:42 52.37201 -0.97630 30116 ft 423 kts 325°
2026-05-08 16:43 52.39717 -1.00145 30477 ft 425 kts 325°
2026-05-08 16:43 52.42219 -1.02649 30799 ft 428 kts 325°
2026-05-08 16:43 52.44768 -1.05203 31119 ft 430 kts 325°
2026-05-08 16:43 52.47323 -1.07763 31471 ft 431 kts 325°
2026-05-08 16:44 52.49892 -1.10342 31843 ft 432 kts 324°
2026-05-08 16:44 52.52444 -1.12911 32036 ft 430 kts 324°
2026-05-08 16:44 52.54986 -1.15478 32044 ft 425 kts 324°
2026-05-08 16:44 52.57463 -1.17975 32039 ft 411 kts 324°
2026-05-08 16:45 52.59882 -1.20408 32034 ft 405 kts 324°
2026-05-08 16:45 52.64659 -1.25225 32029 ft 402 kts 324°
2026-05-08 16:46 52.69413 -1.30053 32030 ft 401 kts 324°
2026-05-08 16:46 52.74167 -1.34894 32085 ft 401 kts 324°
2026-05-08 16:47 52.78885 -1.39711 32094 ft 401 kts 324°
2026-05-08 16:47 52.83629 -1.44561 32089 ft 400 kts 324°
2026-05-08 16:48 52.88360 -1.49411 32083 ft 400 kts 324°
2026-05-08 16:48 52.93093 -1.54282 32073 ft 400 kts 323°
2026-05-08 16:49 52.97829 -1.59163 32066 ft 401 kts 323°
2026-05-08 16:49 53.02577 -1.64061 32079 ft 401 kts 323°
2026-05-08 16:50 53.07281 -1.68956 32077 ft 401 kts 323°
2026-05-08 16:50 53.12011 -1.73881 32075 ft 401 kts 323°
2026-05-08 16:51 53.16752 -1.78806 32079 ft 401 kts 323°
2026-05-08 16:51 53.21485 -1.83757 32077 ft 401 kts 323°
2026-05-08 16:52 53.26249 -1.88650 32086 ft 402 kts 324°
2026-05-08 16:52 53.31134 -1.93253 32083 ft 403 kts 326°
2026-05-08 16:53 53.38466 -2.00062 32077 ft 403 kts 325°
2026-05-08 16:53 53.43372 -2.04719 32068 ft 402 kts 325°
2026-05-08 16:54 53.48198 -2.09358 32071 ft 403 kts 324°
2026-05-08 16:54 53.53068 -2.14047 32077 ft 404 kts 324°
2026-05-08 16:55 53.57762 -2.19122 32078 ft 397 kts 313°
2026-05-08 16:55 53.61158 -2.26216 32072 ft 386 kts 295°
2026-05-08 16:56 53.63215 -2.34498 32067 ft 383 kts 288°
2026-05-08 16:56 53.65137 -2.42870 32073 ft 383 kts 288°
2026-05-08 16:57 53.67055 -2.51251 32073 ft 383 kts 288°
2026-05-08 16:57 53.68932 -2.59498 32070 ft 383 kts 288°
2026-05-08 16:58 53.70838 -2.67895 32086 ft 383 kts 287°
2026-05-08 16:58 53.72732 -2.76310 32092 ft 383 kts 287°
2026-05-08 16:59 53.74616 -2.84727 32084 ft 383 kts 287°
2026-05-08 16:59 53.76495 -2.93142 32085 ft 382 kts 287°
2026-05-08 17:00 53.78354 -3.01500 32106 ft 382 kts 287°
2026-05-08 17:00 53.80223 -3.09923 32105 ft 382 kts 287°
2026-05-08 17:01 53.82090 -3.18354 32115 ft 382 kts 286°
2026-05-08 17:01 53.83948 -3.26793 32107 ft 383 kts 286°
2026-05-08 17:02 53.85802 -3.35246 32109 ft 383 kts 286°
2026-05-08 17:02 53.87647 -3.43705 32105 ft 382 kts 286°
2026-05-08 17:03 53.89484 -3.52162 32100 ft 382 kts 286°
2026-05-08 17:03 53.91319 -3.60620 32102 ft 382 kts 286°
2026-05-08 17:04 53.93150 -3.69087 32109 ft 382 kts 285°
2026-05-08 17:04 53.94962 -3.77579 32128 ft 382 kts 285°
2026-05-08 17:05 53.97126 -3.85840 32124 ft 388 kts 294°
2026-05-08 17:05 53.99823 -3.93774 32123 ft 387 kts 294°
2026-05-08 17:06 54.02492 -4.01678 32117 ft 387 kts 294°
2026-05-08 17:06 54.05166 -4.09650 32111 ft 387 kts 294°
2026-05-08 17:07 54.08115 -4.17382 32106 ft 391 kts 299°
2026-05-08 17:07 54.11256 -4.24941 32123 ft 391 kts 298°
2026-05-08 17:08 54.14419 -4.32608 32118 ft 405 kts 298°
2026-05-08 17:08 54.17653 -4.40439 31925 ft 395 kts 298°
2026-05-08 17:09 54.19231 -4.44247 31415 ft 392 kts 298°
2026-05-08 17:09 54.20781 -4.48010 30734 ft 393 kts 298°
2026-05-08 17:09 54.22357 -4.51857 29956 ft 396 kts 298°
2026-05-08 17:09 54.23937 -4.55725 29200 ft 396 kts 298°
2026-05-08 17:10 54.25511 -4.59574 28557 ft 394 kts 298°
2026-05-08 17:10 54.27071 -4.63397 27881 ft 389 kts 298°
2026-05-08 17:10 54.28606 -4.67162 26929 ft 385 kts 298°
2026-05-08 17:10 54.30134 -4.70914 26033 ft 384 kts 298°
2026-05-08 17:11 54.31659 -4.74675 25408 ft 383 kts 298°
2026-05-08 17:11 54.33177 -4.78424 24869 ft 381 kts 299°
2026-05-08 17:11 54.34685 -4.82159 24374 ft 379 kts 298°
2026-05-08 17:11 54.36186 -4.85878 23888 ft 378 kts 299°
2026-05-08 17:12 54.37662 -4.89536 23346 ft 376 kts 299°
2026-05-08 17:12 54.39148 -4.93219 22792 ft 374 kts 299°
2026-05-08 17:12 54.40517 -4.96997 22016 ft 371 kts 289°
2026-05-08 17:12 54.41134 -5.01225 21221 ft 363 kts 269°
2026-05-08 17:13 54.40829 -5.05475 20461 ft 358 kts 249°
2026-05-08 17:13 54.39652 -5.09203 19705 ft 357 kts 230°
2026-05-08 17:13 54.37760 -5.11931 18952 ft 358 kts 209°
2026-05-08 17:13 54.35456 -5.13599 18206 ft 360 kts 203°
2026-05-08 17:14 54.33331 -5.15808 17381 ft 359 kts 218°
2026-05-08 17:14 54.31384 -5.18491 16579 ft 357 kts 219°
2026-05-08 17:14 54.29489 -5.21124 15799 ft 345 kts 219°
2026-05-08 17:14 54.27653 -5.23670 15038 ft 335 kts 219°
2026-05-08 17:15 54.25864 -5.26146 14300 ft 327 kts 219°
2026-05-08 17:15 54.24113 -5.28561 13529 ft 321 kts 219°
2026-05-08 17:15 54.22391 -5.30941 12693 ft 316 kts 219°
2026-05-08 17:15 54.20679 -5.33320 11654 ft 318 kts 219°
2026-05-08 17:16 54.18963 -5.35706 10631 ft 319 kts 219°
2026-05-08 17:16 54.17826 -5.37294 9983 ft 318 kts 219°
2026-05-08 17:16 54.15558 -5.40468 8555 ft 317 kts 219°
2026-05-08 17:16 54.13850 -5.42859 7519 ft 317 kts 219°
2026-05-08 17:17 54.12366 -5.45594 6788 ft 309 kts 237°
2026-05-08 17:17 54.11644 -5.47665 6611 ft 292 kts 238°
2026-05-08 17:17 54.10684 -5.50559 6423 ft 271 kts 241°
2026-05-08 17:17 54.09967 -5.53450 5919 ft 266 kts 249°
2026-05-08 17:18 54.09324 -5.56395 5333 ft 264 kts 249°
2026-05-08 17:18 54.08690 -5.59326 4743 ft 263 kts 254°
2026-05-08 17:18 54.08470 -5.62370 4159 ft 259 kts 272°
2026-05-08 17:18 54.08709 -5.65395 3545 ft 258 kts 290°
2026-05-08 17:19 54.09424 -5.68170 3075 ft 253 kts 298°
2026-05-08 17:19 54.10197 -5.70881 3002 ft 255 kts 298°
2026-05-08 17:19 54.10994 -5.73603 3005 ft 257 kts 299°
2026-05-08 17:19 54.11799 -5.76323 3011 ft 257 kts 299°
2026-05-08 17:20 54.12599 -5.79040 3010 ft 256 kts 298°
2026-05-08 17:20 54.13404 -5.81745 3012 ft 255 kts 299°
2026-05-08 17:20 54.14194 -5.84456 3013 ft 255 kts 298°
2026-05-08 17:20 54.15083 -5.87058 3005 ft 253 kts 313°
2026-05-08 17:21 54.16466 -5.88876 3015 ft 250 kts 332°
2026-05-08 17:21 54.18031 -5.90161 3013 ft 250 kts 338°
2026-05-08 17:21 54.19683 -5.90989 3011 ft 245 kts 355°
2026-05-08 17:21 54.21309 -5.91162 3011 ft 230 kts 358°
2026-05-08 17:22 54.22818 -5.91694 3012 ft 221 kts 334°
2026-05-08 17:22 54.23928 -5.93536 3017 ft 224 kts 304°
2026-05-08 17:22 54.24665 -5.95889 3016 ft 224 kts 299°
2026-05-08 17:22 54.25350 -5.98280 3016 ft 224 kts 299°
2026-05-08 17:23 54.26025 -6.00650 3016 ft 225 kts 298°
2026-05-08 17:23 54.26725 -6.03053 3016 ft 226 kts 298°
2026-05-08 17:23 54.27433 -6.05448 3014 ft 225 kts 299°
2026-05-08 17:23 54.28134 -6.07837 3016 ft 224 kts 299°
2026-05-08 17:24 54.29007 -6.10005 3016 ft 220 kts 320°
2026-05-08 17:24 54.30322 -6.11275 3016 ft 218 kts 348°
2026-05-08 17:24 54.31825 -6.11551 3023 ft 218 kts 358°
2026-05-08 17:24 54.33331 -6.11657 3023 ft 215 kts 359°
2026-05-08 17:25 54.34834 -6.11752 3018 ft 216 kts 359°
2026-05-08 17:25 54.36345 -6.11836 3028 ft 217 kts 359°
2026-05-08 17:25 54.37856 -6.11912 3024 ft 217 kts 359°
2026-05-08 17:25 54.39342 -6.11992 3028 ft 216 kts 359°
2026-05-08 17:26 54.40854 -6.11782 3022 ft 217 kts 16°
2026-05-08 17:26 54.42195 -6.10577 3036 ft 220 kts 33°
2026-05-08 17:26 54.43446 -6.09091 3032 ft 216 kts 33°
2026-05-08 17:26 54.44641 -6.07673 3026 ft 203 kts 33°
2026-05-08 17:27 54.45781 -6.06324 3028 ft 199 kts 33°
2026-05-08 17:27 54.46924 -6.04970 3036 ft 199 kts 33°
2026-05-08 17:27 54.48051 -6.03635 3052 ft 196 kts 33°
2026-05-08 17:27 54.49141 -6.02341 2931 ft 183 kts 33°
2026-05-08 17:28 54.50179 -6.01109 2728 ft 179 kts 33°
2026-05-08 17:28 54.51187 -5.99912 2503 ft 173 kts 33°
2026-05-08 17:28 54.52163 -5.98753 2260 ft 168 kts 33°
2026-05-08 17:28 54.53108 -5.97630 2037 ft 162 kts 33°
2026-05-08 17:29 54.54017 -5.96548 1821 ft 156 kts 34°
2026-05-08 17:29 54.54895 -5.95504 1609 ft 153 kts 33°
2026-05-08 17:29 54.55751 -5.94484 1399 ft 145 kts 33°
2026-05-08 17:29 54.56549 -5.93532 1198 ft 133 kts 32°
2026-05-08 17:30 54.57272 -5.92670 1014 ft 122 kts 34°
2026-05-08 17:30 54.57952 -5.91860 845 ft 118 kts 35°
2026-05-08 17:30 54.58618 -5.91067 646 ft 117 kts 34°
2026-05-08 17:30 54.59287 -5.90277 453 ft 117 kts 30°
2026-05-08 17:31 54.59952 -5.89478 333 ft 117 kts 33°
2026-05-08 17:31 54.60618 -5.88699 170 ft 116 kts 34°
2026-05-08 17:31 54.61274 -5.87891 35 ft 115 kts 32°
2026-05-08 17:31 54.61768 -5.87285 19 ft 47 kts 32°
2026-05-08 17:32 54.61902 -5.87140 19 ft 21 kts 38°
2026-05-08 17:32 54.62011 -5.87008 16 ft 1 kts 104°
2026-05-08 17:32 54.62007 -5.87007 17 ft 1 kts 141°
2026-05-08 17:32 54.61996 -5.87022 17 ft 5 kts 216°
2026-05-08 17:33 54.61955 -5.87079 16 ft 10 kts 216°
2026-05-08 17:33 54.61894 -5.87142 19 ft 11 kts 211°
2026-05-08 17:33 54.61812 -5.87120 17 ft 15 kts 136°
2026-05-08 17:33 54.61761 -5.87009 21 ft 10 kts 153°
2026-05-08 17:34 54.61694 -5.87029 22 ft 12 kts 227°
2026-05-08 17:34 54.61621 -5.87122 21 ft 15 kts 214°
2026-05-08 17:34 54.61539 -5.87212 21 ft 11 kts 214°
2026-05-08 17:34 54.61481 -5.87203 21 ft 6 kts 156°
2026-05-08 17:35 54.61463 -5.87189 22 ft 2 kts 156°
2026-05-08 17:35 54.61461 -5.87187 22 ft 0 kts 156°